Home   Weather   Burgdorf   Past weeks

Flag for Germany Past Weather in Burgdorf, Lower Saxony, Germany — Yesterday and Last 2 Weeks

Now
25 °F

Passing clouds.


Feels Like: 25 °F
Forecast: 25 / 34 °F
Wind: 2 mph from East

Location: Celle Airport

Current Time: Jan 19, 2017 at 3:18:28 am

Latest Report: Jan 19, 2017 at 2:20 am


Visibility: 4 mi

Pressure: 30.69 "Hg

Humidity: 93%

Dew Point: 23 °F

Location of BurgdorfLocation

Past Weather in Burgdorf — Graph

°F

Burgdorf Temperature Yesterday

Maximum temperature yesterday: 28 °F (at 12:20 pm)
Minimum temperature yesterday: 25 °F (at 3:20 am)
Average temperature yesterday: 26 °F

High & Low Weather Summary for the Past Weeks

 TemperatureHumidityPressure
High43 °F (Jan 4, 2:20 am)100% (Jan 7, 6:20 pm)30.77 "Hg (Jan 7, 6:20 pm)
Low10 °F (Jan 6, 6:20 am)55% (Jan 4, 10:20 pm)28.94 "Hg (Jan 13, 5:20 am)
Average30 °F88%30.05 "Hg
* Reported Jan 4 1:20 am — Jan 19 1:20 am, Burgdorf, Weather by CustomWeather, © 2017

Note: Actual official high and low records may vary slightly from our data, if they occured in-between our weather recording intervals... More about our weather records

Advertising

Burgdorf Weather History for the Previous 24 Hours

Scroll right to see more
 ConditionsComfort  
Time TempWeatherWind HumidityBarometerVisibility
1:20 am
Thu, Jan 19
25 °FPassing clouds.2 mph93%30.69 "Hg5 mi
12:20 am27 °FPassing clouds.2 mph86%30.69 "HgN/A
11:20 pm
Wed, Jan 18
27 °FPassing clouds.3 mph86%30.72 "Hg6 mi
10:20 pm27 °FPassing clouds.3 mph86%30.72 "Hg6 mi
9:20 pm27 °FPassing clouds.2 mph86%30.72 "Hg5 mi
8:20 pm27 °FPassing clouds.2 mph86%30.72 "Hg5 mi
7:20 pm27 °FPassing clouds.2 mph86%30.72 "Hg4 mi
6:20 pm27 °FPassing clouds.2 mph86%30.72 "Hg4 mi
5:20 pm27 °FPartly cloudy.No wind86%30.72 "Hg4 mi
4:20 pm28 °FBroken clouds.2 mph80%30.72 "Hg4 mi
3:20 pm28 °FBroken clouds.3 mph80%30.72 "Hg4 mi
2:20 pm28 °FPartly sunny.No wind80%30.72 "Hg4 mi
1:20 pm28 °FPartly sunny.1 mph86%30.72 "Hg4 mi
12:20 pm28 °FPartly sunny.No wind80%30.74 "Hg4 mi
11:20 am27 °FPartly sunny.3 mph80%30.74 "Hg4 mi
10:48 am27 °FPartly sunny.5 mph93%30.74 "Hg4 mi
10:20 am27 °FLow clouds.5 mph93%30.74 "Hg4 mi
9:20 am27 °FIce fog.2 mph86%30.74 "Hg3 mi
8:45 am25 °FIce fog.5 mph100%30.72 "Hg3 mi
8:20 am25 °FIce fog.3 mph93%30.72 "Hg3 mi
7:20 am25 °FIce fog.No wind93%30.72 "Hg2 mi
6:20 am25 °FIce fog.3 mph93%30.72 "Hg2 mi
5:20 am25 °FIce fog.No wind93%30.72 "Hg3 mi
4:20 am25 °FLow clouds.No wind93%30.72 "Hg4 mi
3:20 am25 °FLow clouds.2 mph93%30.72 "Hg4 mi
Weather by CustomWeather, © 2017

See weather overviewHow to use our weather pages